Regional Weather Roundup
Issued by NWS

Home | Current Version | Previous Version | Graphics & Text | Print | Product List | Glossary On
Versions: 1 2 3 4 5 6 7 8 9 10 11 12 13 14 15 16 17 18 19 20 21 22 23 24 25 26 27 28 29 30 31 32 33 34 35 36 37 38 39 40 41 42 43 44 45 46 47 48 49 50
000
ASUS43 KDTX 280401
RWRMI
MICHIGAN HOURLY REGIONAL WEATHER ROUNDUP
NATIONAL WEATHER SERVICE DETROIT/PONTIAC MI
1200 AM EDT FRI AUG 28 2015

NOTE: "FAIR" INDICATES FEW OR NO CLOUDS BELOW 12,000 FEET WITH NO
SIGNIFICANT WEATHER AND/OR OBSTRUCTION TO VISIBILITY.

MIZ047>049-052>055-059>063-066>070-074>076-081>083-280500-
SOUTHEAST LOWER MICHIGAN

CITY           SKY/WX    TMP DP  RH WIND       PRES   REMARKS
ADRIAN         CLEAR     54  53  97 CALM      30.19S
ALMA           CLEAR     54  53  95 CALM      30.18S
ANN ARBOR      CLEAR     49  49 100 CALM      30.18F FOG
BAD AXE        CLEAR     51  49  95 S3        30.18F
CARO           CLEAR     51  50  98 CALM      30.17S FOG
DETROIT CITY   CLEAR     56  52  86 CALM      30.19F
DETROIT        PTCLDY    59  53  80 E3        30.19F
FLINT          CLEAR     53  49  86 CALM      30.18F
GROSSE ILE     CLEAR     61  55  82 E3        30.18S
HILLSDALE      CLEAR     55  55 100 E3        30.18F
HOWELL         CLEAR     54  53  95 CALM      30.18S

CITY           SKY/WX    TMP DP  RH WIND       PRES   REMARKS
JACKSON        CLEAR     54  52  93 CALM      30.18F
LAMBERTVILLE   CLEAR     54  52  90 CALM      30.18S
LANSING        CLEAR     55  52  89 CALM      30.18S
LAPEER         FOG       49  49 100 CALM      30.19S VSB 1/2
MASON          CLEAR     49  49  97 CALM      30.18S FOG
MONROE         CLEAR     54  52  92 CALM      30.17F
MT. CLEMENS    CLEAR     54  51  90 CALM      30.17F
PONTIAC        CLEAR     50  49  96 CALM      30.18F
PORT HOPE        N/A     55  53  93 S3        30.16S
PORT HURON       N/A     52  52 100 CALM      30.19F FOG
TRI CITIES     CLEAR     59  54  83 S7        30.18S
MIDLAND        FAIR      58  54  85 S3        30.16S
TROY           CLEAR     57  54  88 CALM      30.20S
SAGINAW HB     CLEAR     54  52  94 CALM      30.17R
$$
MIZ043>046-050>051-056>058-064>065-071>073-077>080-280500-
SOUTHWEST LOWER MICHIGAN

CITY           SKY/WX    TMP DP  RH WIND       PRES   REMARKS
BATTLE CREEK   CLEAR     58  53  84 CALM      30.17F
BENTON HARBOR  CLEAR     55  53  93 CALM      30.15F
BIG RAPIDS     CLEAR     56  55  95 CALM      30.15F
COLDWATER      CLEAR     54  53  97 SE5       30.17F
FREMONT          N/A     54  54 100 CALM      30.15F FOG
HOLLAND        CLEAR     56  54  93 CALM      30.17S
GRAND RAPIDS   PTCLDY    56  55  97 NE3       30.17S
IONIA          FAIR      53  52  95 SE3       30.16F
KALAMAZOO      CLEAR     58  52  80 CALM      30.17F
LUDINGTON      CLEAR     56  54  92 CALM      30.15S
MARSHALL       CLEAR     50  49  96 CALM      30.17F
MOUNT PLEASANT CLOUDY    61  55  81 CALM      30.16S
MUSKEGON       CLEAR     56  53  90 CALM      30.16S
SOUTH HAVEN    CLEAR     55  53  95 CALM      30.16S
$$
MIZ016>042-280500-
NORTHERN LOWER MICHIGAN

CITY           SKY/WX    TMP DP  RH WIND       PRES   REMARKS
ALPENA         CLEAR     51  49  92 CALM      30.15F
BEAVER ISLAND  CLEAR     61  58  92 SW6       30.12S
BELLAIRE       FOG       54  53  95 CALM      30.14S VSB 1
CADILLAC       CLEAR     53  51  95 CALM      30.14F FOG
CHARLEVOIX     CLEAR     58  58  97 SW3       30.15S
FRANKFORT      CLEAR     57  56  97 CALM      30.13S
GAYLORD        PTCLDY    56  55  97 CALM      30.15S
GRAYLING       MOCLDY    55  54  97 CALM      30.15S FOG
HARBOR SPRINGS CLEAR     55  54  95 CALM      30.13S
HOUGHTON LAKE  MOCLDY    60  56  86 S7        30.16S
MANISTEE       CLEAR     54  50  87 CALM      30.14S
OSCODA         CLEAR     51  48  92 CALM      30.15F
PELLSTON       CLEAR     49  48  97 CALM      30.13S
ROGERS CITY    CLEAR     56  53  89 S8        30.14F
TRAVERSE CITY  CLEAR     58  55  90 CALM      30.12F
$$
MIZ007>008-015-280500-
EASTERN UPPER MICHIGAN

CITY           SKY/WX    TMP DP  RH WIND       PRES   REMARKS
KINROSS        CLEAR     52  50  93 S7        30.11F
MACKINAC ISLAN CLEAR     58  56  94 S7        30.11F
NEWBERRY       CLEAR     56  56  99 S5        30.10F FOG
S. S. MARIE    CLEAR     54  50  86 CALM      30.11S
MUNISING         N/A     62  57  83 S9        30.06F
$$
MIZ004>006-011>014-085-280500-
CENTRAL UPPER MICHIGAN

CITY           SKY/WX    TMP DP  RH WIND       PRES   REMARKS
MANISTIQUE     CLEAR     61  58  91 SW8       30.10S
ESCANABA       CLEAR     63  57  82 S7        30.08S
MENOMINEE      PTCLDY    61  54  77 SW6       30.08S
SAWYER-GWINN   CLEAR     58  56  91 S9        30.07F
$$
MIZ001>003-009>011-084-280500-
WESTERN UPPER MICHIGAN

CITY           SKY/WX    TMP DP  RH WIND       PRES   REMARKS
IRON MOUNTAIN  CLEAR     59  55  87 S6        30.06F
HOUGHTON       CLEAR     54  51  90 CALM      30.03S
COPPER HARBOR    N/A     58  52  80 SW7       30.01F
IRONWOOD       PTCLDY    64  57  77 W5        30.00F
$$

ABBREVIATIONS USED IN REMARKS
   TC - TEMPERATURE IN CELSIUS
  WCI - WIND CHILL INDEX
   HX - HEAT INDEX
  VSB - VISIBILITY



USA.gov is the U.S. government's official web portal to all federal, state and local government web resources and services.